Home   Weather   Sterling Heights   Past weeks

Flag for USA Past Weather in Sterling Heights, Michigan, USA — Yesterday and Last 2 Weeks

Now
43 °F

Fog.


Feels Like: 35 °F
Forecast: 36 / 52 °F
Wind: 16 mph from Southeast

Location: Selfridge Air National Guard Base

Current Time: Feb 28, 2017 at 11:59:27 am

Latest Report: Feb 28, 2017 at 11:03 am


Visibility: 5 mi

Pressure: 29.96 "Hg

Humidity: 100%

Dew Point: 43 °F

Location of Sterling HeightsLocation

Past Weather in Sterling Heights — Graph

°F

Sterling Heights Temperature Yesterday

Maximum temperature yesterday: 48 °F (at 12:58 pm)
Minimum temperature yesterday: 33 °F (at 6:58 am)
Average temperature yesterday: 40 °F

High & Low Weather Summary for the Past Weeks

 TemperatureHumidityPressure
High67 °F (Feb 18, 2:58 pm)100% (Feb 17, 11:58 pm)30.34 "Hg (Feb 17, 11:58 pm)
Low23 °F (Feb 16, 7:01 am)29% (Feb 19, 3:58 pm)29.38 "Hg (Feb 24, 10:42 pm)
Average40 °F77%29.84 "Hg
* Reported Feb 13 10:58 am — Feb 28 10:40 am, Sterling Heights, Weather by CustomWeather, © 2017

Note: Actual official high and low records may vary slightly from our data, if they occured in-between our weather recording intervals... More about our weather records

Advertising

Sterling Heights Weather History for the Previous 24 Hours

Scroll right to see more
 ConditionsComfort  
Time TempWeatherWind HumidityBarometerVisibility
10:40 am
Tue, Feb 28
43 °FLight rain. Fog.15 mph100%29.97 "Hg4 mi
9:58 am41 °FMore clouds than sun.15 mph100%30.01 "Hg4 mi
9:32 am41 °FFog.14 mph100%30.02 "Hg4 mi
8:58 am39 °FLight rain. Fog.14 mph100%30.06 "Hg3 mi
7:58 am38 °FLight rain. Fog.16 mph100%30.09 "Hg3 mi
7:31 am37 °FLight rain. Fog.13 mph100%30.08 "Hg3 mi
7:20 am37 °FLight rain. Fog.10 mph100%30.09 "Hg2 mi
7:08 am37 °FLight rain. Fog.12 mph100%30.09 "Hg3 mi
6:58 am38 °FPassing clouds.12 mph100%30.11 "Hg10 mi
5:58 am36 °FPassing clouds.9 mph100%30.13 "Hg10 mi
5:18 am36 °FOvercast.5 mph100%30.12 "Hg10 mi
5:08 am36 °FOvercast.No wind100%30.12 "Hg9 mi
4:33 am32 °FPassing clouds.5 mph100%30.13 "Hg7 mi
4:18 am32 °FIce fog.3 mph100%30.14 "Hg4 mi
4:03 am32 °FPassing clouds.3 mph100%30.14 "Hg9 mi
3:58 am33 °FPassing clouds.3 mph100%30.16 "Hg10 mi
3:33 am34 °FOvercast.5 mph100%30.15 "Hg9 mi
3:03 am32 °FPassing clouds.5 mph100%30.15 "Hg9 mi
2:58 am33 °FPassing clouds.6 mph100%30.17 "Hg10 mi
1:58 am34 °FClear.5 mph100%30.21 "Hg10 mi
12:58 am33 °FClear.8 mph100%30.21 "Hg10 mi
11:58 pm
Mon, Feb 27
34 °FClear.7 mph98%30.21 "Hg10 mi
10:58 pm35 °FPassing clouds.3 mph100%30.21 "Hg10 mi
9:58 pm36 °FPassing clouds.8 mph97%30.21 "Hg10 mi
8:58 pm38 °FPassing clouds.9 mph91%30.21 "Hg10 mi
7:58 pm37 °FPassing clouds.8 mph89%30.21 "Hg10 mi
6:58 pm41 °FPartly cloudy.9 mph78%30.21 "Hg10 mi
5:58 pm44 °FPartly sunny.15 mph68%30.19 "Hg10 mi
4:58 pm47 °FScattered clouds.16 mph58%30.18 "Hg10 mi
3:58 pm47 °FScattered clouds.14 mph55%30.20 "Hg10 mi
2:58 pm48 °FScattered clouds.12 mph51%30.20 "Hg10 mi
1:58 pm48 °FPassing clouds.12 mph50%30.20 "Hg10 mi
12:58 pm48 °FPassing clouds.No wind49%30.22 "Hg10 mi
11:58 am47 °FPassing clouds.8 mph52%30.24 "Hg10 mi
Weather by CustomWeather, © 2017

See weather overviewHow to use our weather pages